VE3FWM-1 Weather Reports


Display with metric or nautical units.
time (UTC)temp
F
wind
direction
speed
MPH
gust
MPH
rain 1hr
in
rain 24hr
in
rain mn
in
humidity
%
barometer
mb
20260503233008 46 239 1.0 3.0 0.00 0.40 0.40 92 1005.8
20260503231508 46 239 0.0 1.0 0.01 0.40 0.40 92 1005.9
20260503230009 46 360 0.0 2.0 0.01 0.40 0.40 91 1006.0
20260503224509 46 360 0.0 3.0 0.01 0.40 0.40 91 1006.1
20260503223009 46 238 0.0 3.0 0.01 0.40 0.40 90 1006.2
20260503221510 46 238 0.0 4.0 0.00 0.39 0.39 90 1006.2
20260503220010 46 238 0.0 5.0 0.01 0.39 0.39 89 1006.3
20260503214508 46 261 0.0 0.0 0.01 0.39 0.39 88 1006.4
20260503213012 47 360 0.0 8.0 0.01 0.39 0.39 85 1006.6
20260503211509 48 283 1.0 10.0 0.01 0.39 0.39 81 1006.8
20260503210010 49 259 4.0 10.0 0.00 0.38 0.38 75 1006.5
20260503204508 49 321 0.0 1.0 0.01 0.38 0.38 74 1006.3
20260503203013 50 321 1.0 5.0 0.01 0.38 0.38 72 1006.1
20260503201509 50 360 0.0 10.0 0.01 0.38 0.38 70 1006.2
20260503200010 52 360 2.0 8.0 0.01 0.38 0.38 66 1006.5
20260503194508 53 277 2.0 5.0 0.01 0.37 0.37 59 1006.7
20260503193022 53 104 0.0 3.0 0.01 0.37 0.37 55 1006.4
20260503191508 53 118 1.0 4.0 0.01 0.37 0.37 54 1006.7
20260503190009 53 128 1.0 4.0 0.01 0.37 0.37 55 1007.1
20260503184514 53 223 0.0 2.0 0.00 0.36 0.36 52 1007.5
20260503183011 53 223 0.0 3.0 0.00 0.36 0.36 52 1008.0
20260503181508 54 221 3.0 9.0 0.01 0.36 0.36 52 1008.6
20260503180016 54 236 2.0 7.0 0.01 0.36 0.36 48 1008.4
20260503174509 52 228 2.0 7.0 0.01 0.36 0.36 53 1008.4
20260503173020 48 238 3.0 7.0 0.01 0.36 0.36 58 1008.5
20260503171520 48 77 0.0 4.0 0.00 0.35 0.35 62 1008.7
20260503081513 29 360 0.0 0.0 0.00 0.00 0.00 78 1012.2
20260503071509 29 360 0.0 0.0 0.00 0.00 0.00 80 1012.4
20260503054509 29 360 0.0 0.0 0.00 0.00 0.00 80 1012.9
20260503053011 29 360 0.0 0.0 0.00 0.00 0.00 79 1012.9
20260503051510 30 360 0.0 2.0 0.00 0.00 0.00 79 1013.0
20260503050015 30 360 1.0 3.0 0.00 0.00 0.00 79 1013.2
20260503044509 31 360 1.0 2.0 0.00 0.00 0.00 78 1013.3
20260503043010 32 360 0.0 2.0 0.00 0.00 0.00 76 1013.4
20260503041510 32 360 0.0 2.0 0.00 0.00 0.00 74 1013.5
20260503040017 32 360 0.0 1.0 0.00 0.00 0.00 73 1013.6
20260503034510 33 360 0.0 2.0 0.00 0.00 0.00 73 1013.7
20260503033011 33 360 0.0 2.0 0.00 0.00 0.00 71 1013.6
20260503031510 33 360 0.0 2.0 0.00 0.00 0.00 71 1013.6
20260503030010 33 360 0.0 0.0 0.00 0.00 0.00 72 1013.6
20260503024510 34 360 0.0 2.0 0.00 0.00 0.00 73 1013.7
20260503023010 34 360 0.0 1.0 0.00 0.00 0.00 72 1013.8
20260503021510 35 360 0.0 3.0 0.00 0.00 0.00 70 1013.9
20260503020011 35 360 0.0 0.0 0.00 0.00 0.00 71 1013.9
20260503014510 36 360 1.0 3.0 0.00 0.00 0.00 69 1013.8
20260503013010 37 319 0.0 2.0 0.00 0.00 0.00 67 1013.7
20260503011510 38 320 1.0 5.0 0.00 0.00 0.00 68 1013.7
20260503010011 39 360 0.0 4.0 0.00 0.00 0.00 66 1013.6
20260503004510 40 360 3.0 8.0 0.00 0.00 0.00 68 1013.4
20260503003010 41 327 4.0 9.0 0.00 0.00 0.00 65 1013.0
20260503001513 41 326 5.0 10.0 0.00 0.00 0.00 67 1013.1
20260503000014 41 325 5.0 12.0 0.00 0.00 0.00 64 1013.1
20260502234512 42 327 10.0 14.0 0.00 0.00 0.00 61 1013.2